Location: *
(2.5500°S, 65.9667°W)
Time: 18:38:37
(UTC+00:00)

Vanguard 1 - Visible Passes

Search period start: 19 April 2024 00:00
Search period end: 29 April 2024 00:00
Orbit: 653 x 3825 km, 34.2° (Epoch: 17 April)

Date Brightness Start Highest point End Pass type
(mag) Time Alt. Az. Time Alt. Az. Time Alt. Az.
19 Apr 13.3 01:42:50 10° SSW 01:45:36 16° S 01:45:36 16° S visible
19 Apr 13.8 04:39:17 23° ENE 04:39:17 23° ENE 04:44:59 10° ENE visible
19 Apr 12.8 06:51:55 60° NNW 06:51:55 60° NNW 07:10:01 10° NE visible
19 Apr 13.5 09:04:32 14° WNW 09:17:22 24° NW 09:30:00 10° NNE visible
20 Apr 13.4 02:02:41 10° SSW 02:04:25 15° SSW 02:04:25 15° SSW visible
20 Apr 13.6 04:58:05 31° ENE 04:58:05 31° ENE 05:06:14 10° ENE visible
20 Apr 13.0 07:10:42 51° NW 07:10:42 51° NW 07:30:06 10° NE visible
20 Apr 13.7 09:26:19 10° WNW 09:39:05 18° NNW 09:49:21 10° N visible
21 Apr 13.2 00:05:18 10° S 00:09:54 12° SSE 00:10:38 12° SSE visible
21 Apr 13.5 02:22:33 10° SSW 02:23:15 12° SSW 02:23:15 12° SSW visible
21 Apr 13.4 05:16:47 38° NE 05:16:47 38° NE 05:27:07 10° NE visible
21 Apr 13.1 07:29:24 40° NW 07:31:42 41° NW 07:50:03 10° NNE visible
21 Apr 13.8 09:52:36 10° NW 10:01:10 14° NNW 10:08:23 10° N visible
22 Apr 13.1 00:24:23 10° S 00:29:30 16° SSE 00:29:30 16° SSE visible
22 Apr13.703:22:48ENE03:22:48ENE02:42:08SWvisible
22 Apr 13.3 05:35:24 44° NE 05:35:24 44° NE 05:47:44 10° NE visible
22 Apr 13.4 07:48:00 30° NW 07:53:05 32° NW 08:09:55 10° NNE visible
23 Apr 13.0 00:43:46 10° SSW 00:48:26 19° S 00:48:26 19° S visible
23 Apr 13.8 03:41:20 11° ENE 03:41:20 11° ENE 03:41:37 10° ENE visible
23 Apr 13.2 05:53:56 47° NNE 05:53:56 47° NNE 06:08:06 10° NE visible
23 Apr 13.6 08:06:31 21° WNW 08:14:46 26° NNW 08:29:43 10° NNE visible
24 Apr 12.9 01:03:18 10° SSW 01:07:24 21° S 01:07:24 21° S visible
24 Apr 14.0 03:59:47 17° ENE 03:59:47 17° ENE 04:03:01 10° ENE visible
24 Apr 13.2 06:12:22 45° N 06:12:22 45° N 06:28:19 10° NE visible
24 Apr 13.8 08:24:58 13° WNW 08:36:49 20° NNW 08:49:30 10° NNE visible
25 Apr 12.9 01:22:56 10° SSW 01:26:25 22° SSW 01:26:25 22° SSW visible
25 Apr 13.8 04:18:09 23° NE 04:18:09 23° NE 04:24:02 10° NE visible
25 Apr 13.3 06:30:44 40° NNW 06:30:44 40° NNW 06:48:25 10° NNE visible
25 Apr 13.9 08:47:22 10° NW 08:59:14 16° NNW 09:09:21 10° NNE visible
25 Apr 12.9 23:26:50 10° S 23:30:47 12° SSE 23:32:50 12° SE visible
26 Apr 13.0 01:42:41 10° SSW 01:45:29 21° SSW 01:45:29 21° SSW visible
26 Apr 13.7 04:36:26 29° NE 04:36:26 29° NE 04:44:45 10° NE visible
26 Apr 13.4 06:49:00 33° NW 06:49:48 33° NNW 07:08:28 10° NNE visible
26 Apr 14.0 09:13:21 10° NW 09:21:57 13° NNW 09:29:24 10° N visible
26 Apr 12.7 23:45:14 10° S 23:51:49 18° SE 23:51:58 18° SE visible
27 Apr 13.1 02:02:34 10° SW 02:42:04 - ENE 02:04:38 18° SW visible
27 Apr 13.5 04:54:38 34° NNE 04:54:38 34° NNE 05:05:14 10° NE visible
27 Apr 13.6 07:07:12 25° NW 07:11:45 27° NNW 07:28:30 10° NNE visible
27 Apr 14.1 09:38:56 10° NNW 09:44:50 12° N 09:50:04 10° N visible
28 Apr 12.5 00:04:21 10° SSW 00:11:11 24° SSE 00:11:11 24° SSE visible
28 Apr 13.3 02:22:35 10° SW 03:00:11 - ENE 02:23:51 15° SW visible
28 Apr 13.5 05:12:45 37° NNE 05:12:45 37° NNE 05:25:33 10° NE visible
28 Apr 13.8 07:25:18 17° NW 07:34:03 21° NNW 07:48:39 10° NNE visible
28 Apr 14.1 10:02:41 10° NNW 10:07:42 11° N 10:12:09 10° NNE visible
